TNO5555 YMMB-NWWW

Flight info

Callsign TNO5555
Flight time 3h 14m
Altitude 37000
Route DOSEL Y59 TESAT B450 NOBAR B580 MISLY/N0441F390 B580 POXAK POXAK2A
Aircraft A20N/M-SDE2E3FGHIRWXY/LB1

Departure

Time 2026-04-22 15:35
Airport Melbourne Moorabbin Airport (YMMB)

Arrival

Time 2026-04-22 18:50
Airport La Tontouta International Airport (NWWW)
Time Latitude Longitude Altitude Speed Heading
2026-04-22 15:28 -37.97790 145.09589 48 ft 0 kts
2026-04-22 15:31 -37.97794 145.09589 49 ft 3 kts 22°
2026-04-22 15:32 -37.97805 145.09574 51 ft 2 kts 95°
2026-04-22 15:32 -37.97805 145.09571 51 ft 0 kts 99°
2026-04-22 15:32 -37.97805 145.09599 48 ft 6 kts 89°
2026-04-22 15:32 -37.97818 145.09644 52 ft 6 kts 148°
2026-04-22 15:33 -37.97889 145.09658 50 ft 11 kts 175°
2026-04-22 15:33 -37.97993 145.09666 50 ft 24 kts 178°
2026-04-22 15:33 -37.98153 145.09681 49 ft 23 kts 174°
2026-04-22 15:33 -37.98308 145.09696 47 ft 22 kts 171°
2026-04-22 15:34 -37.98382 145.09786 46 ft 14 kts 88°
2026-04-22 15:34 -37.98376 145.09908 46 ft 13 kts 82°
2026-04-22 15:34 -37.98366 145.10019 45 ft 10 kts 71°
2026-04-22 15:34 -37.98346 145.10029 45 ft 7 kts
2026-04-22 15:35 -37.98199 145.10026 46 ft 56 kts 356°
2026-04-22 15:35 -37.97251 145.09933 84 ft 145 kts 354°
2026-04-22 15:35 -37.96223 145.09856 651 ft 157 kts 359°
2026-04-22 15:35 -37.94992 145.09756 966 ft 195 kts 356°
2026-04-22 15:36 -37.93549 145.09735 1424 ft 218 kts
2026-04-22 15:36 -37.92030 145.10183 2038 ft 231 kts 17°
2026-04-22 15:36 -37.90457 145.10896 2516 ft 248 kts 21°
2026-04-22 15:36 -37.88830 145.11707 3191 ft 255 kts 22°
2026-04-22 15:37 -37.87175 145.12508 3906 ft 260 kts 21°
2026-04-22 15:37 -37.85455 145.13283 4669 ft 264 kts 19°
2026-04-22 15:37 -37.83695 145.14021 5428 ft 268 kts 19°
2026-04-22 15:37 -37.81899 145.14735 6220 ft 272 kts 18°
2026-04-22 15:38 -37.80072 145.15439 7020 ft 276 kts 18°
2026-04-22 15:38 -37.76324 145.16859 8582 ft 286 kts 17°
2026-04-22 15:38 -37.74400 145.17587 9361 ft 291 kts 16°
2026-04-22 15:39 -37.72437 145.18332 10122 ft 297 kts 16°
2026-04-22 15:39 -37.70435 145.19093 10700 ft 308 kts 16°
2026-04-22 15:39 -37.68312 145.19900 10999 ft 329 kts 16°
2026-04-22 15:39 -37.66055 145.20759 11319 ft 348 kts 16°
2026-04-22 15:40 -37.63706 145.21654 11907 ft 357 kts 16°
2026-04-22 15:40 -37.61320 145.22564 12688 ft 360 kts 16°
2026-04-22 15:40 -37.58920 145.23480 13533 ft 360 kts 16°
2026-04-22 15:40 -37.56515 145.24396 14319 ft 362 kts 16°
2026-04-22 15:41 -37.54088 145.25319 14962 ft 366 kts 15°
2026-04-22 15:41 -37.51636 145.26250 15577 ft 371 kts 15°
2026-04-22 15:41 -37.49185 145.27180 16211 ft 374 kts 15°
2026-04-22 15:41 -37.46681 145.28129 16861 ft 378 kts 15°
2026-04-22 15:42 -37.44159 145.29086 17526 ft 381 kts 15°
2026-04-22 15:42 -37.41608 145.30053 18192 ft 384 kts 15°
2026-04-22 15:42 -37.39041 145.31025 18822 ft 387 kts 15°
2026-04-22 15:42 -37.36449 145.32006 19338 ft 391 kts 15°
2026-04-22 15:43 -37.33830 145.32996 19861 ft 395 kts 15°
2026-04-22 15:43 -37.31182 145.33996 20383 ft 399 kts 15°
2026-04-22 15:43 -37.28516 145.35003 20901 ft 402 kts 15°
2026-04-22 15:43 -37.25819 145.36020 21420 ft 406 kts 15°
2026-04-22 15:44 -37.23102 145.37044 21929 ft 410 kts 15°
2026-04-22 15:44 -37.20361 145.38077 22432 ft 413 kts 15°
2026-04-22 15:44 -37.17608 145.39171 22930 ft 418 kts 20°
2026-04-22 15:44 -37.15116 145.41100 23390 ft 426 kts 40°
2026-04-22 15:45 -37.13198 145.43940 23872 ft 431 kts 56°
2026-04-22 15:45 -37.11725 145.47170 24285 ft 434 kts 62°
2026-04-22 15:45 -37.10390 145.50571 24673 ft 438 kts 64°
2026-04-22 15:45 -37.09041 145.54013 25065 ft 441 kts 63°
2026-04-22 15:46 -37.07621 145.57430 25463 ft 443 kts 61°
2026-04-22 15:46 -37.06123 145.60807 25832 ft 446 kts 60°
2026-04-22 15:46 -37.04553 145.64169 26198 ft 449 kts 59°
2026-04-22 15:46 -37.02935 145.67523 26561 ft 452 kts 59°
2026-04-22 15:47 -37.01288 145.70882 26932 ft 454 kts 59°
2026-04-22 15:47 -36.99626 145.74252 27287 ft 457 kts 59°
2026-04-22 15:47 -36.97973 145.77598 27626 ft 459 kts 59°
2026-04-22 15:47 -36.96291 145.81004 27974 ft 462 kts 58°
2026-04-22 15:48 -36.94599 145.84437 28304 ft 465 kts 58°
2026-04-22 15:48 -36.92906 145.87876 28627 ft 467 kts 58°
2026-04-22 15:48 -36.91193 145.91356 28957 ft 470 kts 59°
2026-04-22 15:48 -36.89479 145.94837 29264 ft 472 kts 59°
2026-04-22 15:49 -36.87756 145.98335 29648 ft 473 kts 59°
2026-04-22 15:49 -36.86035 146.01822 30098 ft 472 kts 59°
2026-04-22 15:49 -36.84309 146.05317 30509 ft 472 kts 58°
2026-04-22 15:49 -36.82593 146.08791 30896 ft 470 kts 58°
2026-04-22 15:50 -36.80880 146.12252 31277 ft 469 kts 58°
2026-04-22 15:50 -36.79164 146.15713 31600 ft 469 kts 58°
2026-04-22 15:50 -36.77472 146.19122 31904 ft 468 kts 58°
2026-04-22 15:50 -36.75758 146.22571 32224 ft 468 kts 58°
2026-04-22 15:51 -36.74045 146.26015 32528 ft 468 kts 58°
2026-04-22 15:51 -36.72329 146.29462 32838 ft 467 kts 58°
2026-04-22 15:51 -36.70613 146.32908 33155 ft 467 kts 58°
2026-04-22 15:51 -36.68903 146.36337 33485 ft 465 kts 58°
2026-04-22 15:52 -36.67195 146.39759 33777 ft 465 kts 58°
2026-04-22 15:52 -36.65488 146.43174 34032 ft 465 kts 58°
2026-04-22 15:52 -36.63779 146.46592 34322 ft 464 kts 58°
2026-04-22 15:52 -36.62069 146.50006 34552 ft 464 kts 58°
2026-04-22 15:53 -36.60363 146.53409 34768 ft 464 kts 58°
2026-04-22 15:53 -36.58675 146.56774 34978 ft 464 kts 58°
2026-04-22 15:53 -36.56966 146.60176 35185 ft 463 kts 58°
2026-04-22 15:53 -36.55260 146.63572 35388 ft 463 kts 58°
2026-04-22 15:54 -36.53552 146.66966 35583 ft 463 kts 58°
2026-04-22 15:54 -36.51841 146.70362 35773 ft 463 kts 59°
2026-04-22 15:54 -36.50130 146.73754 35961 ft 463 kts 59°
2026-04-22 15:54 -36.48421 146.77140 36147 ft 462 kts 59°
2026-04-22 15:55 -36.46714 146.80520 36333 ft 462 kts 59°
2026-04-22 15:55 -36.45002 146.83904 36499 ft 462 kts 59°
2026-04-22 15:55 -36.43293 146.87279 36703 ft 462 kts 58°
2026-04-22 15:55 -36.41608 146.90605 36887 ft 461 kts 58°
2026-04-22 15:56 -36.39898 146.93976 37060 ft 461 kts 58°
2026-04-22 15:56 -36.38193 146.97333 37210 ft 460 kts 58°
2026-04-22 15:56 -36.36483 147.00697 37360 ft 461 kts 58°
2026-04-22 15:56 -36.34772 147.04060 37384 ft 462 kts 58°
2026-04-22 15:57 -36.31345 147.10786 37395 ft 461 kts 58°
2026-04-22 15:57 -36.27922 147.17490 37397 ft 459 kts 58°
2026-04-22 15:58 -36.24527 147.24126 37394 ft 459 kts 58°
2026-04-22 15:58 -36.21110 147.30794 37402 ft 459 kts 58°
2026-04-22 15:59 -36.17684 147.37465 37402 ft 459 kts 58°
2026-04-22 15:59 -36.14258 147.44125 37403 ft 458 kts 58°
2026-04-22 16:00 -36.10859 147.50718 37415 ft 458 kts 58°
2026-04-22 16:00 -36.07432 147.57351 37414 ft 458 kts 58°
2026-04-22 16:01 -36.04003 147.63977 37419 ft 458 kts 58°
2026-04-22 16:01 -36.00568 147.70601 37414 ft 458 kts 58°
2026-04-22 16:02 -35.97126 147.77226 37418 ft 458 kts 58°
2026-04-22 16:02 -35.93685 147.83837 37423 ft 458 kts 58°
2026-04-22 16:03 -35.90236 147.90450 37424 ft 458 kts 58°
2026-04-22 16:03 -35.86785 147.97055 37422 ft 459 kts 58°
2026-04-22 16:04 -35.83325 148.03662 37436 ft 459 kts 58°
2026-04-22 16:04 -35.79854 148.10280 37437 ft 459 kts 58°
2026-04-22 16:05 -35.76384 148.16880 37442 ft 459 kts 58°
2026-04-22 16:05 -35.72911 148.23477 37447 ft 459 kts 58°
2026-04-22 16:06 -35.69425 148.30085 37450 ft 460 kts 58°
2026-04-22 16:06 -35.65941 148.36675 37449 ft 460 kts 58°
2026-04-22 16:07 -35.62448 148.43271 37459 ft 460 kts 58°
2026-04-22 16:07 -35.58978 148.49810 37462 ft 460 kts 58°
2026-04-22 16:08 -35.55489 148.56373 37462 ft 459 kts 58°
2026-04-22 16:08 -35.51988 148.62946 37464 ft 459 kts 58°
2026-04-22 16:09 -35.48490 148.69500 37462 ft 459 kts 58°
2026-04-22 16:09 -35.44989 148.76050 37476 ft 459 kts 58°
2026-04-22 16:10 -35.41481 148.82599 37467 ft 460 kts 58°
2026-04-22 16:10 -35.37990 148.89104 37463 ft 460 kts 58°
2026-04-22 16:11 -35.34467 148.95657 37469 ft 460 kts 58°
2026-04-22 16:11 -35.30945 149.02195 37461 ft 460 kts 58°
2026-04-22 16:12 -35.27418 149.08731 37431 ft 460 kts 58°
2026-04-22 16:12 -35.23885 149.15266 37429 ft 460 kts 58°
2026-04-22 16:13 -35.20948 149.20688 37430 ft 460 kts 58°
2026-04-22 16:13 -35.16830 149.28278 37433 ft 460 kts 58°
2026-04-22 16:14 -35.13286 149.34796 37456 ft 460 kts 58°
2026-04-22 16:14 -35.09744 149.41299 37455 ft 460 kts 58°
2026-04-22 16:15 -35.06791 149.46711 37450 ft 461 kts 58°
2026-04-22 16:15 -35.03232 149.53223 37448 ft 461 kts 57°
2026-04-22 16:16 -34.99678 149.59714 37445 ft 461 kts 57°
2026-04-22 16:16 -34.96112 149.66215 37453 ft 461 kts 58°
2026-04-22 16:17 -34.92540 149.72714 37446 ft 461 kts 58°
2026-04-22 16:17 -34.88974 149.79190 37442 ft 461 kts 58°
2026-04-22 16:18 -34.85395 149.85678 37439 ft 461 kts 57°
2026-04-22 16:18 -34.81838 149.92115 37441 ft 461 kts 58°
2026-04-22 16:19 -34.78252 149.98593 37438 ft 462 kts 58°
2026-04-22 16:19 -34.74661 150.05068 37443 ft 462 kts 58°
2026-04-22 16:20 -34.71065 150.11539 37439 ft 462 kts 57°
2026-04-22 16:20 -34.67467 150.18003 37444 ft 462 kts 58°
2026-04-22 16:21 -34.63859 150.24474 37432 ft 463 kts 58°
2026-04-22 16:21 -34.60264 150.30909 37427 ft 463 kts 58°
2026-04-22 16:22 -34.54832 150.40609 37422 ft 463 kts 58°
2026-04-22 16:23 -34.49389 150.50303 37423 ft 464 kts 58°
2026-04-22 16:23 -34.45747 150.56777 37414 ft 465 kts 58°
2026-04-22 16:24 -34.40297 150.66438 37403 ft 465 kts 58°
2026-04-22 16:25 -34.36643 150.72903 37401 ft 465 kts 58°
2026-04-22 16:25 -34.31147 150.82604 37396 ft 467 kts 58°
2026-04-22 16:26 -34.27470 150.89079 37385 ft 468 kts 58°
2026-04-22 16:26 -34.23783 150.95561 37383 ft 468 kts 58°
2026-04-22 16:27 -34.20091 151.02040 37376 ft 468 kts 58°
2026-04-22 16:27 -34.16396 151.08514 37376 ft 468 kts 58°
2026-04-22 16:28 -34.12716 151.14949 37372 ft 469 kts 58°
2026-04-22 16:28 -34.09008 151.21418 37373 ft 469 kts 58°
2026-04-22 16:29 -34.05288 151.27899 37372 ft 470 kts 58°
2026-04-22 16:29 -34.01567 151.34371 37387 ft 470 kts 58°
2026-04-22 16:30 -33.97840 151.40842 37368 ft 471 kts 58°
2026-04-22 16:30 -33.94102 151.47320 37366 ft 471 kts 58°
2026-04-22 16:31 -33.90361 151.53791 37361 ft 471 kts 58°
2026-04-22 16:31 -33.86609 151.60269 37354 ft 471 kts 58°
2026-04-22 16:32 -33.82856 151.66742 37355 ft 479 kts 58°
2026-04-22 16:32 -33.79030 151.73321 37345 ft 477 kts 57°
2026-04-22 16:33 -33.74997 151.79617 37350 ft 475 kts 53°
2026-04-22 16:33 -33.70800 151.85743 37346 ft 475 kts 53°
2026-04-22 16:34 -33.66626 151.91825 37346 ft 475 kts 53°
2026-04-22 16:34 -33.62446 151.97964 37332 ft 475 kts 53°
2026-04-22 16:35 -33.58273 152.04117 37338 ft 476 kts 53°
2026-04-22 16:35 -33.54094 152.10273 37338 ft 476 kts 53°
2026-04-22 16:36 -33.49912 152.16421 37336 ft 476 kts 53°
2026-04-22 16:36 -33.45754 152.22521 37336 ft 476 kts 53°
2026-04-22 16:37 -33.41564 152.28659 37328 ft 477 kts 53°
2026-04-22 16:37 -33.37363 152.34800 37328 ft 477 kts 53°
2026-04-22 16:38 -33.33159 152.40937 37325 ft 477 kts 53°
2026-04-22 16:38 -33.28977 152.47031 37320 ft 477 kts 53°
2026-04-22 16:39 -33.24767 152.53156 37344 ft 477 kts 53°
2026-04-22 16:39 -33.20544 152.59291 37316 ft 479 kts 53°
2026-04-22 16:40 -33.16309 152.65430 37317 ft 479 kts 53°
2026-04-22 16:41 -33.09979 152.74588 37319 ft 479 kts 53°
2026-04-22 16:41 -33.05727 152.80728 37315 ft 480 kts 53°
2026-04-22 16:42 -33.01474 152.86860 37307 ft 481 kts 53°
2026-04-22 16:42 -32.97204 152.93004 37310 ft 482 kts 53°
2026-04-22 16:43 -32.92929 152.99146 37309 ft 482 kts 53°
2026-04-22 16:43 -32.88680 153.05239 37308 ft 482 kts 53°
2026-04-22 16:44 -32.84400 153.11368 37316 ft 482 kts 53°
2026-04-22 16:44 -32.80111 153.17499 37300 ft 483 kts 53°
2026-04-22 16:45 -32.75808 153.23641 37306 ft 484 kts 53°
2026-04-22 16:45 -32.71497 153.29783 37296 ft 484 kts 53°
2026-04-22 16:46 -32.67210 153.35880 37299 ft 484 kts 53°
2026-04-22 16:46 -32.62887 153.42019 37289 ft 484 kts 53°
2026-04-22 16:47 -32.58561 153.48152 37294 ft 485 kts 53°
2026-04-22 16:47 -32.54225 153.54289 37283 ft 486 kts 52°
2026-04-22 16:48 -32.49875 153.60439 37289 ft 494 kts 52°
2026-04-22 16:48 -32.45428 153.66715 37281 ft 501 kts 52°
2026-04-22 16:49 -32.40906 153.73083 37278 ft 509 kts 52°
2026-04-22 16:49 -32.36308 153.79547 37264 ft 517 kts 52°
2026-04-22 16:50 -32.31651 153.86080 37664 ft 514 kts 52°
2026-04-22 16:50 -32.29404 153.89221 38326 ft 502 kts 51°
2026-04-22 16:50 -32.27164 153.92339 38965 ft 491 kts 51°
2026-04-22 16:50 -32.24974 153.95374 39448 ft 480 kts 51°
2026-04-22 16:51 -32.22832 153.98329 39904 ft 469 kts 50°
2026-04-22 16:51 -32.20726 154.01216 40323 ft 458 kts 50°
2026-04-22 16:51 -32.18667 154.04025 40697 ft 448 kts 51°
2026-04-22 16:52 -32.14697 154.09782 39889 ft 461 kts 52°
2026-04-22 16:52 -32.12691 154.12722 39018 ft 472 kts 52°
2026-04-22 16:52 -32.10595 154.15759 38136 ft 480 kts 52°
2026-04-22 16:52 -32.08447 154.18788 37515 ft 483 kts 51°
2026-04-22 16:53 -32.06263 154.21811 37286 ft 486 kts 51°
2026-04-22 16:53 -32.01844 154.27885 37264 ft 490 kts 51°
2026-04-22 16:54 -31.97410 154.33990 37259 ft 490 kts 51°
2026-04-22 16:54 -31.93012 154.40057 37268 ft 490 kts 51°
2026-04-22 16:55 -31.88587 154.46162 37259 ft 490 kts 51°
2026-04-22 16:55 -31.84160 154.52259 37260 ft 490 kts 51°
2026-04-22 16:56 -31.79723 154.58360 37236 ft 490 kts 50°
2026-04-22 16:56 -31.75315 154.64411 37248 ft 491 kts 50°
2026-04-22 16:57 -31.70869 154.70503 37250 ft 491 kts 50°
2026-04-22 16:57 -31.66421 154.76588 37242 ft 491 kts 50°
2026-04-22 16:58 -31.62725 154.81637 37247 ft 491 kts 50°
2026-04-22 16:58 -31.57553 154.88694 37239 ft 492 kts 50°
2026-04-22 16:59 -31.53085 154.94777 37235 ft 492 kts 50°
2026-04-22 16:59 -31.48614 155.00855 37237 ft 492 kts 50°
2026-04-22 17:00 -31.44150 155.06914 37235 ft 491 kts 49°
2026-04-22 17:00 -31.37468 155.15965 37236 ft 493 kts 49°
2026-04-22 17:01 -31.32982 155.22029 37233 ft 493 kts 49°
2026-04-22 17:01 -31.28487 155.28096 37223 ft 493 kts 49°
2026-04-22 17:02 -31.23994 155.34152 37224 ft 493 kts 49°
2026-04-22 17:02 -31.19498 155.40201 37210 ft 493 kts 48°
2026-04-22 17:03 -31.15028 155.46206 37221 ft 493 kts 48°
2026-04-22 17:03 -31.10523 155.52248 37218 ft 493 kts 48°
2026-04-22 17:04 -31.06019 155.58280 37220 ft 493 kts 48°
2026-04-22 17:04 -31.01508 155.64311 37215 ft 493 kts 48°
2026-04-22 17:05 -30.97023 155.70298 37209 ft 494 kts 48°
2026-04-22 17:05 -30.92497 155.76331 37206 ft 494 kts 48°
2026-04-22 17:06 -30.87971 155.82354 37207 ft 494 kts 48°
2026-04-22 17:06 -30.83447 155.88366 37206 ft 494 kts 48°
2026-04-22 17:07 -30.78945 155.94339 37218 ft 494 kts 47°
2026-04-22 17:07 -30.74410 156.00347 37206 ft 494 kts 47°
2026-04-22 17:08 -30.69869 156.06355 37207 ft 495 kts 47°
2026-04-22 17:08 -30.65356 156.12316 37205 ft 495 kts 47°
2026-04-22 17:09 -30.60811 156.18312 37165 ft 495 kts 47°
2026-04-22 17:09 -30.56266 156.24297 37195 ft 495 kts 46°
2026-04-22 17:10 -30.51708 156.30290 37202 ft 495 kts 46°
2026-04-22 17:10 -30.47150 156.36274 37194 ft 495 kts 46°
2026-04-22 17:11 -30.42583 156.42263 37181 ft 495 kts 46°
2026-04-22 17:11 -30.38051 156.48194 37180 ft 495 kts 46°
2026-04-22 17:12 -30.33481 156.54167 37187 ft 495 kts 46°
2026-04-22 17:12 -30.28912 156.60129 37186 ft 495 kts 46°
2026-04-22 17:13 -30.24335 156.66092 37174 ft 496 kts 46°
2026-04-22 17:13 -30.19758 156.72047 37178 ft 496 kts 45°
2026-04-22 17:14 -30.15175 156.78000 37175 ft 495 kts 45°
2026-04-22 17:14 -30.10626 156.83900 37176 ft 495 kts 45°
2026-04-22 17:15 -30.06044 156.89835 37191 ft 495 kts 45°
2026-04-22 17:15 -30.01460 156.95763 37171 ft 495 kts 45°
2026-04-22 17:16 -29.96866 157.01695 37152 ft 495 kts 45°
2026-04-22 17:16 -29.92276 157.07612 37167 ft 495 kts 45°
2026-04-22 17:17 -29.87718 157.13480 37168 ft 495 kts 45°
2026-04-22 17:17 -29.83124 157.19386 37162 ft 495 kts 45°
2026-04-22 17:18 -29.78529 157.25282 37165 ft 495 kts 44°
2026-04-22 17:18 -29.73929 157.31177 37160 ft 495 kts 44°
2026-04-22 17:19 -29.64727 157.42945 37156 ft 495 kts 44°
2026-04-22 17:20 -29.55533 157.54668 37170 ft 495 kts 44°
2026-04-22 17:21 -29.48612 157.63469 37153 ft 495 kts 43°
2026-04-22 17:22 -29.41709 157.72228 37149 ft 495 kts 43°
2026-04-22 17:23 -29.34773 157.81010 37147 ft 495 kts 43°
2026-04-22 17:23 -29.27816 157.89798 37149 ft 497 kts 43°
2026-04-22 17:24 -29.23206 157.95612 37142 ft 496 kts 42°
2026-04-22 17:24 -29.18561 158.01461 37145 ft 496 kts 42°
2026-04-22 17:25 -29.13919 158.07299 37149 ft 496 kts 42°
2026-04-22 17:25 -29.09266 158.13141 37119 ft 496 kts 42°
2026-04-22 17:26 -29.04637 158.18944 37143 ft 498 kts 42°
2026-04-22 17:26 -28.99971 158.24786 37143 ft 498 kts 42°
2026-04-22 17:27 -28.95304 158.30621 37143 ft 497 kts 42°
2026-04-22 17:27 -28.90633 158.36452 37140 ft 497 kts 42°
2026-04-22 17:28 -28.85994 158.42235 37140 ft 497 kts 41°
2026-04-22 17:28 -28.81322 158.48051 37141 ft 497 kts 41°
2026-04-22 17:29 -28.76646 158.53862 37140 ft 497 kts 41°
2026-04-22 17:29 -28.71967 158.59671 37138 ft 497 kts 41°
2026-04-22 17:30 -28.67287 158.65471 37138 ft 497 kts 41°
2026-04-22 17:30 -28.62638 158.71225 37136 ft 498 kts 41°
2026-04-22 17:31 -28.57943 158.77027 37137 ft 498 kts 41°
2026-04-22 17:31 -28.53244 158.82828 37137 ft 498 kts 41°
2026-04-22 17:32 -28.48547 158.88617 37132 ft 498 kts 41°
2026-04-22 17:32 -28.43879 158.94362 37133 ft 498 kts 41°
2026-04-22 17:33 -28.39181 159.00136 37129 ft 498 kts 40°
2026-04-22 17:33 -28.34465 159.05923 37129 ft 499 kts 40°
2026-04-22 17:34 -28.29752 159.11699 37132 ft 499 kts 40°
2026-04-22 17:34 -28.25070 159.17430 37130 ft 499 kts 40°
2026-04-22 17:35 -28.20354 159.23194 37130 ft 498 kts 40°
2026-04-22 17:35 -28.15632 159.28956 37128 ft 499 kts 40°
2026-04-22 17:36 -28.10902 159.34720 37131 ft 500 kts 40°
2026-04-22 17:36 -28.06165 159.40485 37122 ft 500 kts 40°
2026-04-22 17:37 -28.01460 159.46205 37125 ft 500 kts 40°
2026-04-22 17:37 -27.96724 159.51953 37127 ft 500 kts 40°
2026-04-22 17:38 -27.91982 159.57699 37123 ft 500 kts 39°
2026-04-22 17:38 -27.87232 159.63449 37125 ft 500 kts 39°
2026-04-22 17:39 -27.82482 159.69191 37121 ft 500 kts 39°
2026-04-22 17:40 -27.75384 159.77754 37119 ft 500 kts 39°
2026-04-22 17:40 -27.70632 159.83479 37122 ft 500 kts 39°
2026-04-22 17:41 -27.65873 159.89204 37123 ft 500 kts 39°
2026-04-22 17:41 -27.61118 159.94916 37120 ft 500 kts 39°
2026-04-22 17:42 -27.56392 160.00586 37114 ft 499 kts 39°
2026-04-22 17:42 -27.52441 160.05319 37115 ft 499 kts 39°
2026-04-22 17:43 -27.46871 160.11984 37106 ft 499 kts 39°
2026-04-22 17:43 -27.42108 160.17675 37117 ft 499 kts 39°
2026-04-22 17:44 -27.37378 160.23319 37115 ft 499 kts 39°
2026-04-22 17:44 -27.32611 160.28998 37112 ft 499 kts 39°
2026-04-22 17:45 -27.27851 160.34663 37110 ft 499 kts 38°
2026-04-22 17:45 -27.23085 160.40327 37086 ft 498 kts 38°
2026-04-22 17:46 -27.18318 160.45984 37118 ft 498 kts 38°
2026-04-22 17:46 -27.13582 160.51598 37103 ft 498 kts 38°
2026-04-22 17:47 -27.08810 160.57246 37111 ft 498 kts 38°
2026-04-22 17:47 -27.04040 160.62885 37107 ft 498 kts 38°
2026-04-22 17:48 -27.00083 160.67557 37063 ft 498 kts 38°
2026-04-22 17:48 -26.94536 160.74097 37104 ft 497 kts 38°
2026-04-22 17:49 -26.89765 160.79716 37105 ft 497 kts 38°
2026-04-22 17:49 -26.84997 160.85322 37100 ft 497 kts 38°
2026-04-22 17:50 -26.80225 160.90926 37105 ft 497 kts 38°
2026-04-22 17:50 -26.75485 160.96485 37099 ft 497 kts 38°
2026-04-22 17:51 -26.70720 161.02067 37103 ft 496 kts 38°
2026-04-22 17:51 -26.65950 161.07647 37102 ft 496 kts 38°
2026-04-22 17:52 -26.61185 161.13213 37103 ft 496 kts 38°
2026-04-22 17:52 -26.56449 161.18740 37104 ft 496 kts 38°
2026-04-22 17:53 -26.51684 161.24292 37101 ft 496 kts 38°
2026-04-22 17:53 -26.46914 161.29845 37099 ft 495 kts 38°
2026-04-22 17:54 -26.42140 161.35393 37100 ft 495 kts 38°
2026-04-22 17:54 -26.37365 161.40936 37099 ft 495 kts 38°
2026-04-22 17:55 -26.33397 161.45538 37095 ft 495 kts 38°
2026-04-22 17:55 -26.27844 161.51968 37097 ft 495 kts 38°
2026-04-22 17:56 -26.23067 161.57492 37094 ft 495 kts 38°
2026-04-22 17:56 -26.18293 161.63007 37093 ft 494 kts 38°
2026-04-22 17:57 -26.13557 161.68470 37094 ft 494 kts 37°
2026-04-22 17:57 -26.08786 161.73967 37093 ft 494 kts 37°
2026-04-22 17:58 -26.04019 161.79452 37096 ft 493 kts 37°
2026-04-22 17:58 -25.99246 161.84937 37068 ft 493 kts 37°
2026-04-22 17:59 -25.94504 161.90380 37087 ft 494 kts 37°
2026-04-22 17:59 -25.89723 161.95860 37088 ft 494 kts 37°
2026-04-22 18:00 -25.85755 162.00404 37089 ft 493 kts 37°
2026-04-22 18:00 -25.80163 162.06800 37092 ft 493 kts 37°
2026-04-22 18:01 -25.75380 162.12263 37090 ft 493 kts 37°
2026-04-22 18:01 -25.70631 162.17680 37093 ft 494 kts 37°
2026-04-22 18:02 -25.65840 162.23139 37096 ft 494 kts 37°
2026-04-22 18:02 -25.61048 162.28592 37097 ft 493 kts 37°
2026-04-22 18:03 -25.56265 162.34028 37089 ft 493 kts 37°
2026-04-22 18:03 -25.51509 162.39427 37090 ft 493 kts 37°
2026-04-22 18:04 -25.46720 162.44857 37071 ft 493 kts 37°
2026-04-22 18:04 -25.41925 162.50286 37087 ft 493 kts 37°
2026-04-22 18:05 -25.37128 162.55712 37086 ft 493 kts 37°
2026-04-22 18:05 -25.32334 162.61128 37082 ft 493 kts 37°
2026-04-22 18:06 -25.27575 162.66499 37085 ft 492 kts 37°
2026-04-22 18:06 -25.22783 162.71899 37085 ft 492 kts 37°
2026-04-22 18:07 -25.18810 162.76372 37091 ft 492 kts 37°
2026-04-22 18:07 -25.13237 162.82638 37087 ft 492 kts 37°
2026-04-22 18:08 -25.08440 162.88024 37083 ft 492 kts 37°
2026-04-22 18:08 -25.03644 162.93403 37081 ft 492 kts 37°
2026-04-22 18:09 -24.98855 162.98769 37085 ft 491 kts 37°
2026-04-22 18:09 -24.94067 163.04128 37074 ft 490 kts 36°
2026-04-22 18:10 -24.89277 163.09480 37087 ft 491 kts 36°
2026-04-22 18:10 -24.84514 163.14798 37086 ft 491 kts 36°
2026-04-22 18:11 -24.79722 163.20141 37085 ft 491 kts 36°
2026-04-22 18:11 -24.74925 163.25484 37086 ft 491 kts 36°
2026-04-22 18:12 -24.70126 163.30822 37093 ft 491 kts 36°
2026-04-22 18:12 -24.66141 163.35252 37082 ft 489 kts 36°
2026-04-22 18:13 -24.60546 163.41462 37088 ft 489 kts 36°
2026-04-22 18:13 -24.55794 163.46730 37088 ft 489 kts 36°
2026-04-22 18:14 -24.51005 163.52032 37084 ft 489 kts 36°
2026-04-22 18:14 -24.46219 163.57327 37084 ft 489 kts 36°
2026-04-22 18:15 -24.41431 163.62616 37054 ft 488 kts 36°
2026-04-22 18:15 -24.36642 163.67902 37090 ft 487 kts 36°
2026-04-22 18:16 -24.31899 163.73130 37086 ft 487 kts 36°
2026-04-22 18:16 -24.27125 163.78386 37086 ft 487 kts 36°
2026-04-22 18:17 -24.22346 163.83641 37081 ft 487 kts 36°
2026-04-22 18:17 -24.17569 163.88889 37080 ft 486 kts 36°
2026-04-22 18:18 -24.12790 163.94134 37063 ft 486 kts 36°
2026-04-22 18:18 -24.08047 163.99333 37076 ft 485 kts 36°
2026-04-22 18:19 -24.03282 164.04550 37078 ft 485 kts 36°
2026-04-22 18:19 -23.99323 164.08880 37081 ft 484 kts 36°
2026-04-22 18:20 -23.93752 164.14966 37076 ft 484 kts 36°
2026-04-22 18:20 -23.88981 164.20173 37076 ft 484 kts 36°
2026-04-22 18:21 -23.84246 164.25334 37076 ft 484 kts 36°
2026-04-22 18:21 -23.80246 164.29690 37079 ft 484 kts 36°
2026-04-22 18:22 -23.75511 164.34841 37082 ft 484 kts 36°
2026-04-22 18:22 -23.69934 164.40901 37075 ft 483 kts 35°
2026-04-22 18:23 -23.65971 164.45203 37075 ft 483 kts 35°
2026-04-22 18:23 -23.61203 164.50372 37075 ft 483 kts 35°
2026-04-22 18:24 -23.54090 164.58075 37073 ft 482 kts 35°
2026-04-22 18:25 -23.46952 164.65792 37070 ft 482 kts 35°
2026-04-22 18:25 -23.41418 164.71762 37077 ft 482 kts 35°
2026-04-22 18:26 -23.35076 164.78584 37070 ft 481 kts 35°
2026-04-22 18:26 -23.30315 164.83701 37058 ft 481 kts 34°
2026-04-22 18:27 -23.25556 164.88809 37066 ft 481 kts 34°
2026-04-22 18:27 -23.20794 164.93916 37067 ft 480 kts 34°
2026-04-22 18:28 -23.16067 164.98980 37068 ft 480 kts 34°
2026-04-22 18:28 -23.11306 165.04075 37064 ft 480 kts 34°
2026-04-22 18:29 -23.06544 165.09165 37062 ft 480 kts 34°
2026-04-22 18:29 -23.01786 165.14247 37056 ft 480 kts 34°
2026-04-22 18:30 -22.94650 165.21857 37067 ft 479 kts 33°
2026-04-22 18:31 -22.89923 165.26891 37063 ft 479 kts 33°
2026-04-22 18:31 -22.85168 165.31951 37061 ft 479 kts 33°
2026-04-22 18:32 -22.80407 165.37011 37062 ft 479 kts 33°
2026-04-22 18:32 -22.75648 165.42064 37061 ft 479 kts 33°
2026-04-22 18:33 -22.70918 165.47082 36727 ft 478 kts 33°
2026-04-22 18:33 -22.68540 165.49602 35819 ft 480 kts 34°
2026-04-22 18:33 -22.66134 165.52145 34768 ft 486 kts 34°
2026-04-22 18:33 -22.63695 165.54721 33676 ft 493 kts 35°
2026-04-22 18:34 -22.61232 165.57325 32530 ft 498 kts 35°
2026-04-22 18:34 -22.58745 165.59956 31446 ft 501 kts 36°
2026-04-22 18:34 -22.56237 165.62607 30245 ft 507 kts 36°
2026-04-22 18:34 -22.53700 165.65286 28804 ft 513 kts 37°
2026-04-22 18:35 -22.51136 165.67994 27419 ft 517 kts 38°
2026-04-22 18:35 -22.48560 165.70715 26096 ft 519 kts 38°
2026-04-22 18:35 -22.45973 165.73448 24805 ft 519 kts 39°
2026-04-22 18:35 -22.43426 165.76135 23608 ft 517 kts 39°
2026-04-22 18:36 -22.40872 165.78833 22245 ft 508 kts 39°
2026-04-22 18:36 -22.38406 165.81519 20937 ft 501 kts 44°
2026-04-22 18:36 -22.36306 165.84480 19684 ft 497 kts 53°
2026-04-22 18:36 -22.34673 165.87726 18417 ft 492 kts 62°
2026-04-22 18:37 -22.33387 165.91104 16924 ft 484 kts 64°
2026-04-22 18:37 -22.32180 165.94430 15912 ft 467 kts 67°
2026-04-22 18:37 -22.31128 165.97707 14684 ft 456 kts 69°
2026-04-22 18:37 -22.30111 166.00924 13486 ft 444 kts 70°
2026-04-22 18:38 -22.29081 166.04033 12343 ft 430 kts 66°
2026-04-22 18:38 -22.27555 166.06738 10932 ft 421 kts 47°
2026-04-22 18:38 -22.25557 166.08907 10036 ft 408 kts 42°
2026-04-22 18:39 -22.21564 166.13026 8234 ft 385 kts 39°
2026-04-22 18:39 -22.19353 166.14418 8095 ft 352 kts 21°
2026-04-22 18:39 -22.17064 166.15101 7651 ft 334 kts
2026-04-22 18:39 -22.14797 166.15108 7170 ft 319 kts 351°
2026-04-22 18:40 -22.12702 166.14501 6682 ft 307 kts 336°
2026-04-22 18:40 -22.10881 166.13379 6202 ft 298 kts 322°
2026-04-22 18:40 -22.09459 166.11834 5868 ft 283 kts 303°
2026-04-22 18:40 -22.08752 166.09945 5612 ft 266 kts 274°
2026-04-22 18:41 -22.08931 166.08037 5374 ft 250 kts 254°
2026-04-22 18:41 -22.09415 166.06284 5128 ft 240 kts 250°
2026-04-22 18:41 -22.09924 166.04589 4880 ft 237 kts 250°
2026-04-22 18:41 -22.10397 166.02926 4751 ft 224 kts 251°
2026-04-22 18:42 -22.10794 166.01359 4627 ft 213 kts 258°
2026-04-22 18:42 -22.10782 165.99790 4494 ft 215 kts 283°
2026-04-22 18:42 -22.10109 165.98364 4369 ft 216 kts 316°
2026-04-22 18:42 -22.08786 165.97712 4255 ft 212 kts 357°
2026-04-22 18:43 -22.07318 165.97771 4139 ft 212 kts
2026-04-22 18:43 -22.05819 165.97987 4021 ft 226 kts 10°
2026-04-22 18:43 -22.04230 165.98236 3889 ft 233 kts
2026-04-22 18:43 -22.02621 165.98480 3772 ft 233 kts
2026-04-22 18:44 -22.01064 165.98874 3583 ft 226 kts 22°
2026-04-22 18:44 -21.99653 165.99569 3409 ft 227 kts 29°
2026-04-22 18:44 -21.98255 166.00376 3380 ft 226 kts 30°
2026-04-22 18:44 -21.96944 166.01163 3381 ft 209 kts 31°
2026-04-22 18:45 -21.95694 166.01929 3387 ft 205 kts 31°
2026-04-22 18:45 -21.94456 166.02694 3384 ft 205 kts 32°
2026-04-22 18:45 -21.93278 166.03550 3335 ft 202 kts 52°
2026-04-22 18:45 -21.92846 166.04916 3152 ft 195 kts 95°
2026-04-22 18:46 -21.93127 166.06324 2916 ft 189 kts 112°
2026-04-22 18:46 -21.93739 166.07534 2660 ft 178 kts 122°
2026-04-22 18:46 -21.94347 166.08599 2485 ft 160 kts 121°
2026-04-22 18:46 -21.94893 166.09581 2247 ft 146 kts 121°
2026-04-22 18:47 -21.95400 166.10492 2059 ft 140 kts 121°
2026-04-22 18:47 -21.95900 166.11384 1875 ft 139 kts 121°
2026-04-22 18:47 -21.96400 166.12275 1691 ft 139 kts 124°
2026-04-22 18:47 -21.96900 166.13165 1508 ft 139 kts 122°
2026-04-22 18:48 -21.97397 166.14054 1326 ft 138 kts 121°
2026-04-22 18:48 -21.97894 166.14939 1149 ft 138 kts 121°
2026-04-22 18:48 -21.98389 166.15823 955 ft 138 kts 121°
2026-04-22 18:48 -21.98883 166.16705 773 ft 137 kts 121°
2026-04-22 18:49 -21.99367 166.17570 594 ft 136 kts 120°
2026-04-22 18:49 -21.99858 166.18445 413 ft 136 kts 121°
2026-04-22 18:49 -22.00346 166.19317 236 ft 135 kts 121°
2026-04-22 18:49 -22.00833 166.20185 30 ft 134 kts 121°
2026-04-22 18:50 -22.01246 166.20919 28 ft 81 kts 121°
2026-04-22 18:50 -22.01399 166.21194 27 ft 25 kts 118°
2026-04-22 18:50 -22.01454 166.21363 27 ft 22 kts 73°
2026-04-22 18:50 -22.01352 166.21468 27 ft 20 kts 36°
2026-04-22 18:51 -22.01255 166.21560 27 ft 17 kts 77°
2026-04-22 18:51 -22.01269 166.21645 28 ft 2 kts 113°